Flag for U.S.A. Weather past 2 weeks in Greenville, South Carolina, U.S.A.

Now
86 °F

Sunny.


Feels Like: 87 °F
Forecast: 72 / 92 °F
Wind: 7 mph from Northeast

Location: Greenville Downtown Airport

Current Time: Sep 3, 2015 at 12:14:31 PM

Latest Report: Sep 3, 2015 at 10:53 AM


Visibility: 10 mi

Pressure: 30.00 "Hg

Humidity: 48%

Dew point: 64 °F

Location of GreenvilleLocation

Historic Weather in Greenville — Graph

°F

Greenville temperature yesterday

Maximum temperature yesterday: 91 °F (at 3:53 PM)
Minimum temperature yesterday: 71 °F (at 5:53 AM)
Average temperature yesterday: 81 °F

Past Weeks' High & Low Weather Summary

 TemperatureHumidityPressure
High91 °F (Sep 2, 3:53 PM)93% (Aug 23, 6:53 AM)30.23 "Hg (Aug 23, 6:53 AM)
Low64 °F (Aug 31, 3:53 AM)36% (Aug 28, 6:53 PM)29.85 "Hg (Aug 25, 5:53 PM)
Average78 °F64%30.03 "Hg
* Reported Aug 19 10:53 AM — Sep 3 10:53 AM, Greenville, Weather by CustomWeather, © 2015

Note: Actual official high and low records may vary slightly from our data, if they occured in-between our weather recording intervals... More about our weather records

Advertising

Greenville weather history for previous 24 hours

 ConditionsComfort  
Time TempWeatherWind HumidityBarometerVisibility
10:53 AM
Thu, Sep 3
86 °FSunny.7 mph48%30.00 "Hg10 mi
9:53 AM82 °FSunny.3 mph56%29.99 "Hg10 mi
8:53 AM79 °FSunny.6 mph65%29.99 "Hg10 mi
7:53 AM76 °FPassing clouds.8 mph74%29.98 "Hg10 mi
6:53 AM74 °FClear.6 mph79%29.97 "Hg10 mi
5:53 AM77 °FClear.No wind69%29.96 "Hg10 mi
4:53 AM76 °FClear.No wind80%29.96 "Hg10 mi
3:53 AM77 °FClear.3 mph77%29.95 "Hg10 mi
2:53 AM78 °FClear.No wind71%29.95 "Hg10 mi
1:53 AM78 °FPassing clouds.5 mph71%29.97 "Hg10 mi
12:53 AM78 °FPassing clouds.5 mph71%29.99 "Hg10 mi
11:53 PM
Wed, Sep 2
79 °FMostly cloudy.No wind67%29.99 "Hg10 mi
10:53 PM80 °FPassing clouds.5 mph64%30.00 "Hg10 mi
9:53 PM82 °FClear.3 mph58%29.99 "Hg10 mi
8:53 PM83 °FOvercast.3 mph57%29.98 "Hg10 mi
7:53 PM83 °FSunny.7 mph57%29.98 "Hg10 mi
6:53 PM86 °FPassing clouds.9 mph53%29.98 "Hg10 mi
5:53 PM89 °FPassing clouds.7 mph43%29.98 "Hg10 mi
4:53 PM89 °FPassing clouds.9 mph43%29.99 "Hg10 mi
3:53 PM91 °FPassing clouds.7 mph39%30.01 "Hg10 mi
2:53 PM90 °FScattered clouds.5 mph42%30.03 "Hg10 mi
1:53 PM89 °FPassing clouds.No wind43%30.06 "Hg10 mi
12:53 PM88 °FSunny.N/A46%30.08 "Hg10 mi
Weather by CustomWeather, © 2015

See weather overviewHow to use our weather pages